Location: Saginaw
(43.4195°N, 83.9508°W)
Time: 12:28:47
(UTC-04:00)

Daily predictions for brighter satellites

Satellite Brightness Start Highest point End
(mag) Time Altitude Azimuth Time Altitude Azimuth Time Altitude Azimuth
Cosmos 1603 4.3 19:52:20 10° SW 19:57:53 64° WNW 20:03:29 10° NNE
Cosmos 2369 Rocket 2.3 19:55:15 10° NNW 20:00:58 88° ENE 20:06:35 10° SSE
Cosmos 1709 Rocket 4.2 19:55:15 10° SSE 20:01:24 56° E 20:07:38 10° NNE
Cosmos 1340 Rocket 3.3 19:59:28 10° N 20:03:17 39° ENE 20:07:06 10° SE
Cosmos 1758 Rocket 4.0 20:00:00 10° N 20:04:16 41° ENE 20:08:31 10° SSE
NOSS 2 (A) 4.3 20:02:28 10° NW 20:04:49 70° SW 20:07:26 10° SSE
FENGYUN 3A 3.6 20:00:27 10° SSE 20:05:46 76° ENE 20:11:10 10° N
Lacrosse 5 2.5 20:04:29 10° NW 20:09:28 57° SW 20:14:25 10° SSE
BREEZE M DEB (TANK) 3.9 19:59:02 10° WNW 20:09:32 63° NNE 20:12:56 10° E
Cosmos 389 Rocket 2.8 20:06:37 10° SSE 20:09:58 42° E 20:13:18 10° NNE
ALOS 2.3 20:05:27 10° SSE 20:10:07 87° E 20:14:49 10° NNW
Envisat 4.4 20:06:47 10° ESE 20:10:26 20° ENE 20:14:05 10° NNE
Geosat 4.3 20:07:05 10° SSE 20:12:06 76° WSW 20:17:09 10° NNW
Cosmos 1726 Rocket 3.9 20:09:22 10° SSE 20:13:29 43° E 20:17:37 10° NNE
Cosmos 1271 Rocket 2.6 20:12:23 10° S 20:16:08 67° E 20:19:55 10° NNE
FREGAT/IRIS 2.5 20:15:52 10° SSE 20:18:53 68° ENE 20:21:54 10° N
Cosmos 2263 4.2 20:13:38 10° NNW 20:19:17 90° ENE 20:24:56 10° SSE
BREEZE-M DEB (TANK) 3.8 20:17:05 10° WNW 20:20:16 47° N 20:29:47 10° ENE
Resurs 01 Rocket 2.6 20:17:36 10° SE 20:21:19 27° ENE 20:25:03 10° N
Cosmos 2298 Rocket 4.1 20:18:33 10° NNW 20:23:51 62° ENE 20:29:07 10° SSE
Cosmos 1943 3.5 20:18:35 10° SSW 20:24:15 75° WNW 20:29:59 10° NNE
USA 186 3.3 20:25:29 13° ENE 20:25:29 13° ENE 20:26:44 10° NE
FALCON 9 R/B 2.9 20:27:07 10° SSW 20:29:44 23° SSE 20:33:19 14° ESE
CZ-2D R/B 3.8 20:27:12 10° SE 20:30:41 36° ENE 20:34:12 10° N
Cosmos 468 Rocket 4.0 20:27:02 10° SSW 20:32:14 83° ESE 20:37:31 10° NNE
Cosmos 1937 Rocket 3.5 20:27:14 10° NNW 20:32:34 72° ENE 20:37:50 10° SSE
Cosmos 332 Rocket 4.1 20:28:26 10° SSW 20:33:19 74° WNW 20:38:12 10° NNE
SJ-6B 2.8 20:29:57 10° SSE 20:34:00 76° ENE 20:37:58 10° N
Cosmos 841 Rocket 3.9 20:29:36 10° SSE 20:34:18 37° ESE 20:39:00 10° NE
Cosmos 1378 3.1 20:30:49 10° N 20:34:35 61° E 20:38:18 10° SSE
Meteor 1-24 Rocket 4.2 20:32:02 10° N 20:37:45 43° ENE 20:43:18 10° SE
USA 229 DEB 3.9 20:31:03 10° NW 20:38:15 85° WSW 20:45:35 10° SSE
USA 229 3.9 20:31:09 10° NW 20:38:21 85° WSW 20:45:41 10° SSE
Cosmos 371 Rocket 3.5 20:34:48 10° SSW 20:39:41 77° WNW 20:44:35 10° NNE
NOSS 3-1 (A) 4.4 20:35:23 10° NNW 20:42:37 50° NE 20:48:54 17° ESE
YAOGAN 6 4.5 20:44:48 15° ENE 20:44:48 15° ENE 20:46:36 10° NNE
BREEZE-M DEB (TANK) 3.0 20:45:02 10° NW 20:46:59 20° N 20:47:45 17° NE
HJ-1C 3.5 20:43:50 10° S 20:47:11 79° WSW 20:50:33 10° NNW
Cosmos 2058 Rocket 2.9 20:44:06 10° S 20:48:27 76° E 20:52:49 10° NNE
Thor Agena Rocket 4.3 20:44:33 10° N 20:49:44 58° WNW 20:54:50 10° SSW
Cosmos 1544 4.0 20:49:31 26° ESE 20:50:01 27° E 20:53:07 10° NNE
Cosmos 1953 Rocket 3.9 20:46:23 10° NNW 20:50:41 66° W 20:54:57 10° S
Cosmos 2084 3.6 20:47:45 10° SSW 20:51:37 42° ESE 20:54:36 15° NE
Cosmos 1606 Rocket 4.2 20:47:23 10° SSW 20:51:41 58° W 20:55:59 10° N
Cosmos 2228 2.9 20:48:55 10° S 20:53:18 79° E 20:57:39 10° N
NOSS 3-1 (C) 4.1 20:46:10 10° NNW 20:53:41 70° NE 21:00:23 17° SE
Cosmos 1763 Rocket 3.3 20:52:05 10° SSW 20:57:09 79° ESE 21:02:20 10° NNE
MOS 1-B Rocket 4.0 20:55:32 10° SSE 21:01:46 60° ENE 21:07:25 10° N
ATLAS CENTAUR R/B 3.6 20:46:56 10° NW 21:02:07 86° SW 21:05:46 22° SE
Meteor 2-5 Rocket 4.0 20:57:21 10° NNW 21:03:15 77° W 21:09:00 10° S
GEOS 3 Rocket 4.0 21:01:19 10° NE 21:06:28 44° ESE 21:11:34 10° SSW
Cosmos 540 Rocket 3.9 21:01:57 10° SSE 21:06:34 36° ESE 21:11:12 10° NE
Cosmos 1943 Rocket 3.3 21:04:29 10° NW 21:09:44 43° WSW 21:14:59 10° S
Meteor 1-22 Rocket 4.1 21:08:37 10° S 21:14:22 74° E 21:19:56 10° NNE
Spot 2 Rocket 3.4 21:12:52 16° SSE 21:16:57 84° ENE 21:22:02 10° NNW
BREEZE-M DEB (TANK) 3.4 21:08:30 10° SW 21:19:35 57° SSE 21:21:11 38° E
Cosmos 1939 Rocket 2.9 21:19:28 50° E 21:19:45 52° ENE 21:23:34 10° N
Cosmos 1766 3.1 21:18:02 10° S 21:21:59 87° E 21:25:56 10° N
Elektron 1 4.4 21:19:39 10° NNW 21:22:42 44° NNE 21:22:42 44° NNE
Cosmos 2154 Rocket 3.9 21:23:36 10° S 21:29:41 60° E 21:35:50 10° NNE
COSMOS 2406 3.1 21:25:08 10° SSW 21:30:46 66° ESE 21:36:28 10° NNE
Cosmos 304 Rocket 4.0 21:28:07 10° SSW 21:32:53 71° WNW 21:37:42 10° NNE
Cosmos 1356 4.4 21:31:11 10° N 21:33:29 36° NNE 21:33:29 36° NNE
Cosmos 2341 Rocket 4.2 21:34:12 41° SE 21:35:36 47° E 21:41:31 10° NNE
Cosmos 2074 Rocket 4.4 21:31:07 10° SSW 21:37:16 64° W 21:43:27 10° N
Cosmos 1125 Rocket 3.4 21:32:16 10° NNW 21:37:35 73° ENE 21:38:48 52° SE
H-2A R/B 3.8 21:42:17 17° NE 21:42:17 17° NE 21:44:25 10° NNE
NOAA 11 4.4 21:42:52 47° ENE 21:43:05 47° ENE 21:48:17 10° N
Helios 1A 3.7 21:47:42 42° NNE 21:47:42 42° NNE 21:50:45 10° N
Envisat 3.6 21:45:42 21° S 21:49:02 55° W 21:54:02 10° NNW
ERS-1 Rocket 3.7 21:51:22 39° NE 21:51:22 39° NE 21:55:16 10° N
SJ-11-01 4.3 21:51:52 58° SSW 21:52:44 75° WSW 21:57:28 10° NNW
ARGOS 3.9 21:57:12 37° NE 21:57:12 37° NE 22:01:21 10° N
Resurs 01 Rocket 3.4 21:54:18 13° SSW 21:57:42 30° W 22:01:37 10° NW
Cosmos 372 Rocket 3.9 21:55:39 10° NNW 22:00:55 81° WSW 22:01:24 73° SSW
Cosmos 1805 4.2 22:02:26 45° NW 22:02:26 45° NW 22:05:32 10° N
Nadezhda 3 Rocket 4.1 21:56:32 10° N 22:02:51 76° W 22:05:25 38° S
Cosmos 1674 4.4 22:01:31 10° N 22:03:22 28° N 22:03:22 28° N
GP-B 4.3 22:03:10 10° NNW 22:07:20 40° W 22:09:18 26° SW
Cosmos 1953 4.5 22:12:45 20° N 22:12:45 20° N 22:14:06 10° N
Gblst 52 Del rocket 4.5 22:16:08 10° WNW 22:23:31 78° NNE 22:23:50 76° ENE
ATLAS 2AS CENTAUR R/B 3.4 22:17:15 10° NNW 22:25:01 48° NE 22:25:45 47° ENE
Cosmos 2278 4.3 22:21:17 10° NNW 22:25:38 47° NNE 22:25:38 47° NNE
SL-8 Rocket 4.3 22:42:44 58° N 22:42:44 58° N 22:47:37 10° N
USA 267 4.1 22:55:44 38° NNE 22:56:01 38° NNE 23:01:56 10° NW
Cosmos 1980 Rocket 3.9 22:53:42 10° N 22:56:29 25° N 22:56:29 25° N
Cosmos 1697 Rocket 4.0 22:53:49 10° NNW 22:57:04 34° N 22:57:04 34° N
SL-16 R/B 4.4 23:15:37 10° N 23:17:26 16° NNE 23:17:26 16° NNE
H-2A R/B 4.1 23:22:55 23° NNW 23:22:55 23° NNW 23:24:51 10° NNW
